Location: Peach Mountain Observatory
(42.3967°N, 83.9367°W)
Time: 15:48:52
(UTC-05:00)

S-56A Canister/Altair - Pass Details

Date: 24 January 2020
Orbit: 633 x 2500 km, 38.9° (Epoch: 26 February)

Event Time Altitude Azimuth Distance (km) Brightness Sun altitude
Rises 02:46:10 0° 269° (W) 2,916 - -56.0°
Reaches altitude 10° 02:49:04 10° 248° (WSW) 2,046 - -55.5°
Maximum altitude 02:52:00 17° 207° (SSW) 1,729 - -55.1°
Drops below altitude 10° 02:55:17 10° 168° (SSE) 2,318 - -54.5°
Sets 02:58:54 0° 149° (SSE) 3,508 - -54.0°
